Other Public Products
Issued by NWS Grand Forks, ND

Home | Current Version | Previous Version | Graphics & Text | Print | Product List | Glossary On
Versions: 1 2 3 4 5 6 7 8 9 10 11 12 13 14 15 16 17 18 19 20 21 22 23 24 25 26 27 28 29 30 31 32 33 34 35 36 37 38 39 40 41 42 43 44 45 46 47 48 49 50
000
FPUS83 KFGF 021031
OPUFGF
PRAIRIE TO PINES WEATHER ROUNDUP
NATIONAL WEATHER SERVICE EASTERN NORTH DAKOTA/GRAND FORKS ND
400 AM CST FRI DEC 02 2016

 **SATELLITE DATA USED TO AUGMENT SKY COVER AT AUTOMATED STATIONS**
 *****  WEATHER ACROSS EASTERN NORTH DAKOTA  *****

CITY           SKY/WX    TMP DP  RH WIND       PRES   REMARKS
GRAND FORKS    CLOUDY    29  22  75 N12       30.18R WCI  19
GRAND FORKS AF CLOUDY    28  22  79 N12       30.18R WCI  18
GRAND CITY NWS   N/A     28 N/A N/A N5          N/A  WCI  23
BUXTON           N/A     43  40  88 N9          N/A
DEVILS LAKE    CLOUDY    27  22  81 N7        30.16S WCI  19
FARGO          CLOUDY    29  22  75 N13       30.16S WCI  19
WAHPETON ARPT  CLOUDY    28  21  74 NW10      30.17R WCI  19
$$

 *****  WEATHER ACROSS CENTRAL AND WESTERN NORTH DAKOTA  *****

CITY           SKY/WX    TMP DP  RH WIND       PRES   REMARKS
JAMESTOWN      CLOUDY    26  20  77 N10       30.15R WCI  16
BISMARCK       CLOUDY    26  22  84 NE3       30.18R
MINOT          CLOUDY    27  21  78 S6        30.15R WCI  20
MINOT AFB      CLOUDY    26  20  76 SW6       30.15R WCI  19
GARRISON         N/A     24  20  84 SE3       30.15S
WILLISTON      CLOUDY    28  23  81 SE3       30.13R
DICKINSON      CLOUDY    23  20  88 SE3       30.09R
HETTINGER      CLOUDY    24  20  84 S3        30.11S
$$

 *****  OTHER OBSERVATIONS NORTHEAST NORTH DAKOTA  *****

CITY           SKY/WX    TMP DP  RH WIND       PRES   REMARKS
WALHALLA         N/A     27  27 100 N3        30.18S
LANGDON        CLOUDY    28  23  80 N10       30.15R WCI  19
CAVALIER         N/A     28  25  86 N5        30.18S WCI  23
GRAFTON        CLOUDY    28  25  86 N6        30.21R WCI  22
CANDO          CLOUDY    27  23  86 NW3       30.18S
FORT TOTTEN      N/A     27  23  85 N5        29.95S WCI  22
ROLLA          CLOUDY    25  25 100 NW5       30.15S WCI  19
RUGBY            N/A     23  23 100 CALM      30.16S
 ***** THE ABOVE OBSERVATIONS ARE NON NWS ARE NOT QUALITY
        CONTROLLED AND MAY MIS-REPORT RAIN FOR SNOW...
$$

 *****  OTHER OBSERVATIONS SOUTHEAST NORTH DAKOTA *****

CITY           SKY/WX    TMP DP  RH WIND       PRES   REMARKS
COOPERSTOWN    CLOUDY    27  23  86 N9        30.16S WCI  17
VALLEY CITY    CLOUDY    25  23  93 N8        30.18R WCI  16
OAKES          NOT AVBL
GWINNER        CLOUDY    28  23  80 NW6       30.18R WCI  22
SHEYENNE NWR     N/A     28  21  76 N7        29.95S WCI  21
BUFFALO          N/A     27  18  69 N7          N/A  WCI  19
WYNDMERE         N/A     28  25  86 N9          N/A  WCI  20
 ***** THE ABOVE OBSERVATIONS ARE NON NWS ARE NOT QUALITY
       CONTROLLED AND MAY MIS-REPORT RAIN FOR SNOW...
$$

  *****  WEATHER ACROSS NORTHERN MINNESOTA  *****

CITY           SKY/WX    TMP DP  RH WIND       PRES   REMARKS
FLAG ISLAND    CLOUDY    21  19  93 W12       30.13R WCI   9
WARROAD        CLOUDY    21  18  86 NW3       30.15S
ROSEAU         CLOUDY    25  21  86 N7        30.15R WCI  17
HALLOCK        CLOUDY    28  25  86 N10       30.18R WCI  19
THF RVR FALLS  CLOUDY    26  21  81 N9        30.16R WCI  17
HALSTAD          N/A     28  23  82 N12         N/A  WCI  18
FOSSTON        CLOUDY    21  18  86 N9        30.15R WCI  11
BAUDETTE       CLOUDY    24  20  84 NW7       30.12R WCI  16
WASKISH        CLOUDY    23  21  93 NW7       30.13R WCI  15
CROOKSTON      CLOUDY    27  23  86 N10       30.18R WCI  17
$$
  *****  WEATHER ACROSS CENTRAL AND WEST MINNESOTA  *****

CITY           SKY/WX    TMP DP  RH WIND       PRES   REMARKS
BEMIDJI        CLOUDY    22  19  87 NW7       30.12R WCI  14
PARK RAPIDS    CLOUDY    24  17  74 NW9       30.11R WCI  14
WADENA         CLOUDY    25  19  80 N8        30.12R WCI  16
DETROIT LAKES  CLOUDY    27  23  86 N6        30.14R WCI  20
MOORHEAD       CLOUDY    28  23  80 N12       30.17R WCI  18
FERGUS FALLS   CLOUDY    27  21  80 N7        30.19R WCI  19
ELBOW LAKE     CLOUDY    26  21  83 NW8       30.15R WCI  17
MORRIS MN      CLOUDY    28  23  80 N10G16    30.14R WCI  19
STAPLES        CLOUDY    25  19  80 NW6       30.12R WCI  18
WHEATON        CLOUDY   N/A N/A N/A NW8       30.19R
$$
  *****  WEATHER ELSEWHERE ACROSS MINNESOTA  *****

CITY           SKY/WX    TMP DP  RH WIND       PRES   REMARKS
DULUTH         CLOUDY    28  23  81 NW10      30.04R WCI  19
INTRNTL FALLS  CLOUDY    26  21  81 N6        30.09R WCI  19
ELY            CLOUDY    23  21  93 NW5       30.06R WCI  17
CLOQUET        CLOUDY    28  21  74 NW13G18   30.06R WCI  18
BRAINERD       CLOUDY    26  21  81 NW8       30.11R WCI  18
HIBBING        CLOUDY    25  20  81 NW10      30.07R WCI  15
ALEXANDRIA     CLOUDY    27  22  81 NW8       30.12R WCI  19
SAINT CLOUD    CLOUDY    29  22  75 NW7       30.11R WCI  22
MINNEAPOLIS    CLOUDY    31  21  66 NW10      30.11R WCI  22
$$

  *****  WEATHER ACROSS SOUTH DAKOTA  *****

CITY           SKY/WX    TMP DP  RH WIND       PRES   REMARKS
SIOUX FALLS    CLOUDY    33  32  96 N6        30.14R
BROOKINGS      CLOUDY    27  25  93 N8        30.13R WCI  18
WATERTOWN      CLOUDY    26  22  84 NW5       30.12R WCI  20
HURON          CLOUDY    29  28  96 N3        30.17R
SISSETON         N/A     28  21  75 N10       30.15R WCI  19
ABERDEEN       CLOUDY    28  22  78 NW7       30.17R WCI  21
MITCHELL       LGT SNOW  32  31  96 N9        30.17R FOG     WCI  24
PIERRE         CLOUDY    29  26  89 N6        30.14S WCI  23
MOBRIDGE       CLOUDY    28  23  81 SE3       30.13R
RAPID CITY     PTCLDY    19  15  84 CALM      30.09R
$$

  *****  SOME WEATHER IN NEARBY STATES *****

CITY           SKY/WX    TMP DP  RH WIND       PRES   REMARKS
GLASGOW MT     CLOUDY    27  24  89 S8        30.10S WCI  19
GREAT FALLS MT CLOUDY    28  27  96 SE3       30.15R
CHEYENNE WY    FLURRIES  23  16  74 N5        30.06R WCI  17
SCOTTSBLUFF NE PTCLDY    19  13  77 CALM      30.12R
OMAHA NE       CLOUDY    33  26  75 W5        30.17R
DES MOINES IA  CLOUDY    35  31  85 NW8       30.14R
DAVENPORT IA   CLOUDY    36  33  89 W8        30.10R
CHICAGO IL     CLOUDY    37  30  75 W7        30.06R
EAU CLAIRE WI  CLOUDY    30  22  72 NW6       30.07R WCI  24
LA CROSSE WI   CLOUDY    36  26  67 N7        30.08R
$$

  *****  SOME NATIONAL WEATHER *****

CITY           SKY/WX    TMP DP  RH WIND       PRES   REMARKS
LA GUARDIA NY  PTCLDY    43  28  55 W17G25    29.88R
RALEIGH NC     CLEAR     36  30  79 CALM      30.07R
ATLANTA GA     CLEAR     39  31  72 NW9       30.14R
NEW ORLEANS LA MOCLDY    57  42  57 E7        30.15R
OKLAHOMA CITY  CLEAR     36  27  69 S6        30.07R
ALBUQUERQUE NM CLOUDY    31  16  54 N8        29.95F WCI  23
SALT LAKE CITY PTCLDY    28  22  78 S5        30.15S WCI  23
LOS ANGELES CA PTCLDY    57  33  40 N9        29.94F
BOISE ID       CLEAR     23  21  92 CALM      30.28S
SEATTLE WA     CLOUDY    44  41  89 S8        30.34R
$$

*** WEATHER ACROSS MANITOBA...SASKATCHEWAN AND ONTARIO ***
                ***ONTARIO***

CITY           SKY/WX    TMP DP  RH WIND       PRES   REMARKS
GERALDTON      LGT SNOW  27  25  93 NW8       29.90R WCI  18
THUNDER BAY    FLURRIES  27  21  80 NW9       30.01S WCI  17
SIOUX LOOKOUT  FLURRIES  21  18  86 NW6       30.07R WCI  14
TORONTO        PTCLDY    37  30  75 W16G25    29.78R
BIG TROUT LK   CLOUDY    21  19  93 N7        30.11R WCI  13
PICKLE LAKE    NOT AVBL
DRYDEN         CLOUDY    21  19  93 NW5       30.07R WCI  15
KENORA         FLURRIES  19  18  93 N6        30.11R WCI  11
$$
                *** MANITOBA***

CITY           SKY/WX    TMP DP  RH WIND       PRES   REMARKS
BRANDON        CLOUDY    27  23  86 SW3       30.15S
DAUPHIN        CLOUDY    27  25  93 SE2       30.16S FOG
ISLAND LAKE    NOT AVBL
PILOT MOUND      N/A     27  23  86 W1          N/A
THE PAS        PTCLDY    23  19  86 SE2       30.16R
THOMPSON       FLURRIES  16  14  93 VRB2      30.20R
WINNIPEG       CLOUDY    25  21  86 N8        30.18R WCI  16
LYNN LAKE      PTCLDY    10   9  92 SE3       30.13R
CHURCHILL      LGT SNOW  16  14  93 SW7       30.23R FOG     WCI   6
GILLAM         SNOW      14  12  92 SW5       30.23R VSB 1/2 WCI   6
$$
                ***SASKATCHEWAN***

CITY           SKY/WX    TMP DP  RH WIND       PRES   REMARKS
ESTEVAN        CLOUDY    25  21  86 S5        30.13R WCI  19
KINDERSLEY     CLOUDY    25  23  93 NE5       30.08R WCI  19
LLOYDMINSTER   FOG       18  16  93 SW5       30.08S VSB 1   WCI  11
PRINCE ALBERT  FRZ DRZL  25  23  93 N5        30.13R FOG     WCI  19
REGINA         CLOUDY    27  25  93 SE5       30.10R WCI  21
YORKTON        CLOUDY    30  25  80 SW5       30.12R   C1F1C2F2C3F3C4F4C5F5C6F6C7F7C8F8C9F9CaFaCbFbCcFcCdFdCe!



USA.gov is the U.S. government's official web portal to all federal, state and local government web resources and services.